CDT,Max TemperatureF,Mean TemperatureF,Min TemperatureF,Max Dew PointF,MeanDew PointF,Min DewpointF,Max Humidity, Mean Humidity, Min Humidity, Max Sea Level PressureIn, Mean Sea Level PressureIn, Min Sea Level PressureIn, Max VisibilityMiles, Mean VisibilityMiles, Min VisibilityMiles, Max Wind SpeedMPH, Mean Wind SpeedMPH, Max Gust SpeedMPH,PrecipitationIn, CloudCover, Events, WindDirDegrees
2013-6-1,77,64,51,64,60,50,100,86,50,29.71,29.65,29.61,10,9,2,16,5,25,0.15,4,Thunderstorm,186
2013-6-2,59,52,44,46,41,36,93,73,42,30.05,29.92,29.71,10,10,5,17,11,25,0.21,6,,358
2013-6-3,64,50,37,48,43,37,100,71,39,30.15,30.06,30.00,10,10,4,15,5,18,0.00,1,,145
2013-6-4,55,50,46,46,40,34,93,69,44,30.25,30.21,30.15,10,10,10,10,4,,0.01,5,,103
2013-6-5,55,50,46,50,47,43,100,86,71,30.20,30.14,30.06,10,10,9,13,5,17,0.02,7,,67
2013-6-6,57,52,46,48,44,36,100,73,47,30.06,30.02,30.00,10,10,10,17,8,22,0.14,8,,46
2013-6-7,71,60,48,46,44,37,93,65,31,30.04,29.98,29.93,10,10,5,8,4,,0.00,5,,9
2013-6-8,69,58,46,52,46,43,100,67,38,30.06,30.00,29.94,10,10,7,14,3,20,0.00,1,,164
2013-6-9,66,57,48,55,52,46,100,79,64,30.08,30.02,29.92,10,10,10,15,5,18,0.00,2,,79
2013-6-10,69,61,53,57,54,50,100,78,64,29.92,29.85,29.82,10,10,8,10,6,,0.00,2,,81
2013-6-11,80,66,51,64,58,52,100,81,51,29.90,29.85,29.78,10,7,0,12,3,20,0.00,4,,96
2013-6-12,73,63,53,61,55,50,100,75,44,29.92,29.86,29.76,10,8,0,9,3,,0.00,3,,76
2013-6-13,71,63,55,55,51,48,82,65,43,30.10,29.97,29.80,10,10,10,18,10,25,0.00,1,,3
2013-6-14,69,58,46,48,44,34,94,60,28,30.18,30.11,30.01,10,10,8,12,6,,0.00,0,,105
2013-6-15,68,60,53,63,55,43,100,81,59,30.03,29.94,29.80,10,9,2,8,3,,0.34,7,Thunderstorm,171
2013-6-16,82,70,57,63,56,46,100,68,30,29.92,29.82,29.79,10,8,0,21,5,30,0.10,3,Thunderstorm,301
2013-6-17,62,56,48,57,54,45,100,84,72,30.07,29.96,29.86,10,10,2,17,7,22,0.11,3,Thunderstorm,64
2013-6-18,66,54,42,48,42,30,100,66,28,30.16,30.12,30.07,10,10,7,12,6,,0.00,0,,63
2013-6-19,71,56,42,52,47,39,100,64,43,30.18,30.12,30.08,10,10,8,16,5,22,0.00,0,,189
2013-6-20,80,66,53,61,54,48,94,61,45,30.14,30.11,30.07,10,10,8,14,7,22,0.00,2,,207
2013-6-21,77,68,60,66,62,54,100,82,56,30.14,29.99,29.87,10,9,4,23,7,38,0.46,5,Thunderstorm,219
2013-6-22,68,64,59,63,60,57,100,90,83,30.10,30.04,29.95,10,9,4,23,5,28,0.00,5,,66
2013-6-23,84,72,59,73,66,57,100,85,65,30.00,29.90,29.82,10,7,0,18,6,25,0.03,3,,173
2013-6-24,82,73,64,72,69,64,100,81,65,29.96,29.90,29.83,10,9,3,16,7,21,0.00,1,,225
2013-6-25,80,72,64,70,68,64,100,81,65,29.86,29.83,29.81,10,10,2,14,6,18,0.01,2,Thunderstorm,232
2013-6-26,78,70,62,72,66,63,100,85,69,29.82,29.77,29.70,10,8,0,18,3,24,0.06,1,Thunderstorm,152
2013-6-27,78,68,60,72,65,57,100,90,73,29.79,29.72,29.67,10,9,3,15,4,20,0.45,4,Thunderstorm,117
2013-6-28,73,66,59,66,62,57,100,90,69,29.68,29.64,29.61,10,9,2,13,3,16,1.40,6,Thunderstorm,22
2013-6-29,73,66,59,61,55,45,94,70,50,29.87,29.74,29.66,10,10,10,18,10,23,0.02,6,,22
2013-6-30,75,64,53,52,46,43,67,51,33,30.07,29.98,29.88,10,10,10,16,8,22,0.00,0,,40